| time (UTC) | temp C | wind direction | speed KPH | gust KPH | rain 1hr cm | rain 24hr cm | rain mn cm | humidity % | barometer mb |
| 20260906232609 | 18 | 301 | 14.5 | 24.1 | 0.00 | 0.00 | 0.00 | 67 | 1014.6 |
| 20260906232109 | 19 | 317 | 19.3 | 24.1 | 0.00 | 0.00 | 0.00 | 67 | 1014.6 |
| 20260906231609 | 18 | 306 | 19.3 | 22.5 | 0.00 | 0.00 | 0.00 | 69 | 1014.6 |
| 20260906231109 | 18 | 306 | 19.3 | 24.1 | 0.00 | 0.00 | 0.00 | 69 | 1014.7 |
| 20260906230609 | 19 | 289 | 16.1 | 22.5 | 0.00 | 0.00 | 0.00 | 66 | 1014.9 |
| 20260906230108 | 19 | 309 | 16.1 | 22.5 | 0.00 | 0.00 | 0.00 | 66 | 1014.9 |
| 20260906225608 | 19 | 314 | 11.3 | 14.5 | 0.00 | 0.00 | 0.00 | 67 | 1014.9 |
| 20260906224608 | 18 | 346 | 12.9 | 19.3 | 0.00 | 0.00 | 0.00 | 67 | 1014.9 |
| 20260906224108 | 18 | 330 | 14.5 | 20.9 | 0.00 | 0.00 | 0.00 | 68 | 1014.9 |
| 20260906223608 | 18 | 329 | 14.5 | 19.3 | 0.00 | 0.00 | 0.00 | 67 | 1014.9 |
| 20260906223108 | 18 | 309 | 16.1 | 20.9 | 0.00 | 0.00 | 0.00 | 67 | 1015.1 |
| 20260906222609 | 18 | 316 | 12.9 | 19.3 | 0.00 | 0.00 | 0.00 | 67 | 1014.9 |
| 20260906222109 | 19 | 323 | 9.7 | 14.5 | 0.00 | 0.00 | 0.00 | 66 | 1014.9 |
| 20260906221609 | 19 | 313 | 11.3 | 16.1 | 0.00 | 0.00 | 0.00 | 65 | 1015.3 |
| 20260906221108 | 19 | 301 | 8.0 | 14.5 | 0.00 | 0.00 | 0.00 | 65 | 1015.3 |
| 20260906220608 | 19 | 328 | 11.3 | 14.5 | 0.00 | 0.00 | 0.00 | 65 | 1015.0 |
| 20260906220109 | 19 | 350 | 9.7 | 14.5 | 0.00 | 0.00 | 0.00 | 65 | 1014.9 |
| 20260906215109 | 19 | 332 | 8.0 | 12.9 | 0.00 | 0.00 | 0.00 | 65 | 1014.9 |
| 20260906214608 | 19 | 340 | 11.3 | 14.5 | 0.00 | 0.00 | 0.00 | 65 | 1015.1 |
| 20260906214108 | 19 | 352 | 9.7 | 16.1 | 0.00 | 0.00 | 0.00 | 65 | 1014.9 |
| 20260906213608 | 19 | 8 | 9.7 | 16.1 | 0.00 | 0.00 | 0.00 | 65 | 1014.9 |
| 20260906213108 | 18 | 352 | 4.8 | 11.3 | 0.00 | 0.00 | 0.00 | 64 | 1014.9 |
| 20260906212108 | 18 | 324 | 9.7 | 11.3 | 0.00 | 0.00 | 0.00 | 64 | 1015.3 |
| 20260906211109 | 18 | 336 | 8.0 | 9.7 | 0.00 | 0.00 | 0.00 | 65 | 1015.3 |
| 20260906210608 | 18 | 336 | 8.0 | 9.7 | 0.00 | 0.00 | 0.00 | 65 | 1014.9 |
| 20260906210108 | 18 | 10 | 4.8 | 11.3 | 0.00 | 0.00 | 0.00 | 65 | 1015.2 |
| 20260906205609 | 18 | 40 | 8.0 | 11.3 | 0.00 | 0.00 | 0.00 | 65 | 1015.2 |
| 20260906205108 | 18 | 351 | 3.2 | 11.3 | 0.00 | 0.00 | 0.00 | 64 | 1015.3 |
| 20260906204609 | 18 | 41 | 9.7 | 12.9 | 0.00 | 0.00 | 0.00 | 64 | 1015.3 |
| 20260906204107 | 18 | 48 | 8.0 | 12.9 | 0.00 | 0.00 | 0.00 | 64 | 1015.3 |
| 20260906203608 | 18 | 355 | 4.8 | 12.9 | 0.00 | 0.00 | 0.00 | 65 | 1015.3 |
| 20260906202608 | 18 | 21 | 9.7 | 12.9 | 0.00 | 0.00 | 0.00 | 64 | 1015.6 |
| 20260906202108 | 18 | 11 | 8.0 | 14.5 | 0.00 | 0.00 | 0.00 | 65 | 1015.3 |
| 20260906201608 | 18 | 20 | 8.0 | 11.3 | 0.00 | 0.00 | 0.00 | 65 | 1015.6 |
| 20260906201108 | 18 | 20 | 3.2 | 8.0 | 0.00 | 0.00 | 0.00 | 67 | 1015.6 |
| 20260906200608 | 18 | 8 | 3.2 | 4.8 | 0.00 | 0.00 | 0.00 | 66 | 1015.6 |
| 20260906200108 | 18 | 37 | 3.2 | 9.7 | 0.00 | 0.00 | 0.00 | 67 | 1015.6 |
| 20260906195607 | 18 | 65 | 9.7 | 11.3 | 0.00 | 0.00 | 0.00 | 66 | 1015.6 |
| 20260906195108 | 18 | 77 | 9.7 | 12.9 | 0.00 | 0.00 | 0.00 | 66 | 1015.6 |
| 20260906194607 | 18 | 7 | 8.0 | 12.9 | 0.00 | 0.00 | 0.00 | 67 | 1016.0 |
| 20260906194108 | 17 | 31 | 3.2 | 12.9 | 0.00 | 0.00 | 0.00 | 66 | 1016.0 |
| 20260906193608 | 18 | 8 | 8.0 | 11.3 | 0.00 | 0.00 | 0.00 | 66 | 1015.6 |
| 20260906192109 | 17 | 43 | 12.9 | 19.3 | 0.00 | 0.00 | 0.00 | 68 | 1015.6 |
| 20260906191607 | 17 | 43 | 11.3 | 19.3 | 0.00 | 0.00 | 0.00 | 68 | 1015.6 |
| 20260906190608 | 17 | 51 | 14.5 | 19.3 | 0.00 | 0.00 | 0.00 | 69 | 1015.7 |
| 20260906190108 | 17 | 347 | 11.3 | 19.3 | 0.00 | 0.00 | 0.00 | 69 | 1016.0 |
| 20260906185608 | 17 | 54 | 11.3 | 19.3 | 0.00 | 0.00 | 0.00 | 70 | 1016.0 |
| 20260906185108 | 17 | 22 | 14.5 | 22.5 | 0.00 | 0.00 | 0.00 | 71 | 1016.0 |
| 20260906184608 | 17 | 53 | 16.1 | 20.9 | 0.00 | 0.00 | 0.00 | 71 | 1016.0 |
| 20260906184107 | 17 | 29 | 16.1 | 20.9 | 0.00 | 0.00 | 0.00 | 71 | 1016.0 |
| 20260906183608 | 16 | 46 | 17.7 | 20.9 | 0.00 | 0.00 | 0.00 | 72 | 1016.0 |
| 20260906182608 | 16 | 34 | 12.9 | 19.3 | 0.00 | 0.00 | 0.00 | 72 | 1016.3 |
| 20260906182107 | 16 | 26 | 11.3 | 16.1 | 0.00 | 0.00 | 0.00 | 74 | 1016.3 |
| 20260906180607 | 15 | 15 | 11.3 | 20.9 | 0.00 | 0.00 | 0.00 | 78 | 1016.6 |
| 20260906180108 | 15 | 24 | 11.3 | 24.1 | 0.00 | 0.00 | 0.00 | 80 | 1016.3 |
| 20260906175608 | 15 | 71 | 19.3 | 25.7 | 0.00 | 0.00 | 0.00 | 90 | 1015.6 |
| 20260906175111 | 14 | 41 | 20.9 | 27.4 | 0.00 | 0.00 | 0.00 | 91 | 1015.6 |
| 20260906174607 | 14 | 57 | 16.1 | 25.7 | 0.00 | 0.00 | 0.00 | 92 | 1016.6 |
| 20260906174108 | 13 | 34 | 14.5 | 19.3 | 0.00 | 0.00 | 0.00 | 91 | 1016.6 |
| 20260906173608 | 13 | 355 | 12.9 | 16.1 | 0.00 | 0.00 | 0.00 | 90 | 1016.6 |
| 20260906173108 | 13 | 324 | 11.3 | 19.3 | 0.00 | 0.00 | 0.00 | 89 | 1017.3 |
| 20260906172107 | 14 | 329 | 12.9 | 16.1 | 0.00 | 0.00 | 0.00 | 84 | 1017.7 |
| 20260906171108 | 14 | 308 | 11.3 | 14.5 | 0.00 | 0.00 | 0.00 | 83 | 1017.3 |
| 20260906170608 | 14 | 314 | 11.3 | 16.1 | 0.00 | 0.00 | 0.00 | 83 | 1017.3 |
| 20260906170107 | 14 | 312 | 14.5 | 16.1 | 0.00 | 0.00 | 0.00 | 83 | 1017.3 |
| 20260906165607 | 13 | 310 | 11.3 | 14.5 | 0.00 | 0.00 | 0.00 | 84 | 1017.3 |
| 20260906165108 | 13 | 311 | 9.7 | 12.9 | 0.00 | 0.00 | 0.00 | 84 | 1017.3 |
| 20260906164108 | 13 | 324 | 9.7 | 12.9 | 0.00 | 0.00 | 0.00 | 84 | 1017.7 |
| 20260906163608 | 13 | 304 | 9.7 | 14.5 | 0.00 | 0.00 | 0.00 | 84 | 1017.7 |
| 20260906163107 | 13 | 309 | 12.9 | 16.1 | 0.00 | 0.00 | 0.00 | 84 | 1017.7 |
| 20260906162608 | 13 | 316 | 11.3 | 19.3 | 0.00 | 0.00 | 0.00 | 84 | 1017.7 |
| 20260906162108 | 13 | 235 | 14.5 | 19.3 | 0.00 | 0.00 | 0.00 | 85 | 1017.3 |
| 20260906161607 | 13 | 332 | 14.5 | 19.3 | 0.00 | 0.00 | 0.00 | 85 | 1017.3 |
| 20260906161107 | 13 | 324 | 14.5 | 19.3 | 0.00 | 0.00 | 0.00 | 85 | 1017.7 |
| 20260906160607 | 13 | 337 | 14.5 | 19.3 | 0.00 | 0.00 | 0.00 | 86 | 1017.5 |
| 20260906160107 | 13 | 314 | 14.5 | 22.5 | 0.00 | 0.00 | 0.00 | 87 | 1017.6 |
| 20260906155607 | 12 | 307 | 19.3 | 22.5 | 0.00 | 0.00 | 0.00 | 87 | 1017.7 |
| 20260906155107 | 12 | 315 | 17.7 | 25.7 | 0.00 | 0.00 | 0.00 | 87 | 1017.7 |
| 20260906154607 | 12 | 313 | 17.7 | 25.7 | 0.00 | 0.00 | 0.00 | 87 | 1017.4 |
| 20260906154107 | 12 | 315 | 19.3 | 22.5 | 0.00 | 0.00 | 0.00 | 87 | 1017.7 |
| 20260906153607 | 12 | 301 | 19.3 | 24.1 | 0.00 | 0.00 | 0.00 | 87 | 1017.7 |
| 20260906153107 | 12 | 312 | 17.7 | 27.4 | 0.00 | 0.00 | 0.00 | 88 | 1017.9 |
| 20260906152108 | 12 | 329 | 19.3 | 29.0 | 0.00 | 0.00 | 0.00 | 87 | 1018.0 |
| 20260906151606 | 12 | 325 | 14.5 | 27.4 | 0.00 | 0.00 | 0.00 | 87 | 1018.2 |
| 20260906151107 | 13 | 319 | 20.9 | 25.7 | 0.00 | 0.00 | 0.00 | 85 | 1018.3 |
| 20260906150607 | 13 | 311 | 16.1 | 25.7 | 0.00 | 0.00 | 0.00 | 84 | 1018.3 |
| 20260906150107 | 13 | 311 | 16.1 | 24.1 | 0.00 | 0.00 | 0.00 | 83 | 1018.3 |
| 20260906145607 | 13 | 301 | 16.1 | 27.4 | 0.00 | 0.00 | 0.00 | 83 | 1018.3 |
| 20260906145107 | 13 | 315 | 20.9 | 27.4 | 0.00 | 0.00 | 0.00 | 82 | 1018.3 |
| 20260906144607 | 14 | 301 | 17.7 | 24.1 | 0.00 | 0.00 | 0.00 | 82 | 1018.3 |
| 20260906144108 | 15 | 289 | 19.3 | 27.4 | 0.00 | 0.00 | 0.00 | 80 | 1018.3 |
| 20260906143606 | 15 | 284 | 11.3 | 16.1 | 0.00 | 0.00 | 0.00 | 81 | 1018.3 |
| 20260906143107 | 15 | 278 | 8.0 | 11.3 | 0.00 | 0.00 | 0.00 | 80 | 1018.3 |
| 20260906142607 | 15 | 276 | 4.8 | 8.0 | 0.00 | 0.00 | 0.00 | 81 | 1018.0 |
| 20260906142106 | 15 | 270 | 3.2 | 8.0 | 0.00 | 0.00 | 0.00 | 81 | 1018.3 |
| 20260906141106 | 15 | 300 | 4.8 | 8.0 | 0.00 | 0.00 | 0.00 | 81 | 1018.0 |
| 20260906140607 | 15 | 291 | 4.8 | 8.0 | 0.00 | 0.00 | 0.00 | 81 | 1017.7 |
| 20260906140107 | 15 | 32 | 4.8 | 8.0 | 0.00 | 0.00 | 0.00 | 81 | 1017.7 |
| 20260906135607 | 15 | 308 | 3.2 | 4.8 | 0.00 | 0.00 | 0.00 | 81 | 1017.8 |
| 20260906135106 | 15 | 4 | 1.6 | 4.8 | 0.00 | 0.00 | 0.00 | 81 | 1017.7 |
| 20260906134607 | 15 | 334 | 3.2 | 9.7 | 0.00 | 0.00 | 0.00 | 81 | 1018.0 |
| 20260906134107 | 15 | 324 | 6.4 | 9.7 | 0.00 | 0.00 | 0.00 | 81 | 1018.0 |
| 20260906133607 | 15 | 331 | 6.4 | 9.7 | 0.00 | 0.00 | 0.00 | 81 | 1017.8 |
| 20260906132607 | 15 | 41 | 8.0 | 9.7 | 0.00 | 0.00 | 0.00 | 81 | 1017.7 |
| 20260906132107 | 15 | 45 | 8.0 | 12.9 | 0.00 | 0.00 | 0.00 | 82 | 1017.7 |
| 20260906131606 | 15 | 22 | 9.7 | 14.5 | 0.00 | 0.00 | 0.00 | 82 | 1017.4 |
| 20260906131107 | 15 | 35 | 8.0 | 12.9 | 0.00 | 0.00 | 0.00 | 82 | 1017.7 |
| 20260906130606 | 15 | 19 | 9.7 | 16.1 | 0.00 | 0.00 | 0.00 | 82 | 1017.7 |
| 20260906130107 | 15 | 33 | 11.3 | 16.1 | 0.00 | 0.00 | 0.00 | 82 | 1017.9 |
| 20260906125606 | 14 | 60 | 9.7 | 14.5 | 0.00 | 0.00 | 0.00 | 82 | 1017.7 |
| 20260906125106 | 14 | 15 | 6.4 | 11.3 | 0.00 | 0.00 | 0.00 | 83 | 1017.9 |
| 20260906124607 | 14 | 350 | 4.8 | 9.7 | 0.00 | 0.00 | 0.00 | 83 | 1018.0 |
| 20260906124107 | 14 | 330 | 9.7 | 11.3 | 0.00 | 0.00 | 0.00 | 83 | 1018.0 |
| 20260906123607 | 14 | 339 | 9.7 | 16.1 | 0.00 | 0.00 | 0.00 | 83 | 1018.0 |
| 20260906122607 | 14 | 332 | 9.7 | 14.5 | 0.00 | 0.00 | 0.00 | 83 | 1018.0 |
| 20260906121607 | 14 | 354 | 16.1 | 20.9 | 0.00 | 0.00 | 0.00 | 83 | 1017.3 |
| 20260906121107 | 14 | 341 | 14.5 | 19.3 | 0.00 | 0.00 | 0.00 | 83 | 1017.3 |
| 20260906120607 | 14 | 358 | 14.5 | 20.9 | 0.00 | 0.00 | 0.00 | 83 | 1017.4 |
| 20260906120108 | 14 | 338 | 11.3 | 16.1 | 0.00 | 0.00 | 0.00 | 82 | 1017.7 |
| 20260906115607 | 14 | 339 | 14.5 | 16.1 | 0.00 | 0.00 | 0.00 | 82 | 1017.7 |
| 20260906115106 | 14 | 335 | 14.5 | 19.3 | 0.00 | 0.00 | 0.00 | 82 | 1017.7 |
| 20260906114607 | 14 | 334 | 12.9 | 16.1 | 0.00 | 0.00 | 0.00 | 82 | 1017.7 |
| 20260906114107 | 14 | 338 | 11.3 | 16.1 | 0.00 | 0.00 | 0.00 | 81 | 1017.7 |
| 20260906113606 | 15 | 327 | 11.3 | 16.1 | 0.00 | 0.00 | 0.00 | 81 | 1017.7 |
| 20260906112106 | 15 | 349 | 12.9 | 20.9 | 0.00 | 0.00 | 0.00 | 80 | 1017.9 |
| 20260906111606 | 15 | 349 | 14.5 | 20.9 | 0.00 | 0.00 | 0.00 | 80 | 1017.4 |
| 20260906111106 | 15 | 347 | 12.9 | 19.3 | 0.00 | 0.00 | 0.00 | 80 | 1017.6 |
| 20260906110606 | 15 | 3 | 11.3 | 19.3 | 0.00 | 0.00 | 0.00 | 80 | 1017.7 |
| 20260906110107 | 14 | 350 | 9.7 | 16.1 | 0.00 | 0.00 | 0.00 | 81 | 1017.7 |
| 20260906105606 | 14 | 347 | 14.5 | 22.5 | 0.00 | 0.00 | 0.00 | 81 | 1018.0 |
| 20260906105106 | 14 | 357 | 11.3 | 16.1 | 0.00 | 0.00 | 0.00 | 81 | 1018.0 |
| 20260906104606 | 14 | 353 | 11.3 | 20.9 | 0.00 | 0.00 | 0.00 | 81 | 1018.0 |
| 20260906104105 | 14 | 350 | 14.5 | 19.3 | 0.00 | 0.00 | 0.00 | 81 | 1018.0 |
| 20260906103606 | 14 | 329 | 14.5 | 19.3 | 0.00 | 0.00 | 0.00 | 81 | 1017.9 |
| 20260906103106 | 14 | 333 | 14.5 | 22.5 | 0.00 | 0.00 | 0.00 | 81 | 1017.9 |
| 20260906102606 | 14 | 355 | 16.1 | 25.7 | 0.00 | 0.00 | 0.00 | 81 | 1017.8 |
| 20260906101606 | 14 | 348 | 22.5 | 29.0 | 0.00 | 0.00 | 0.00 | 81 | 1017.7 |
| 20260906100606 | 15 | 0 | 19.3 | 27.4 | 0.00 | 0.00 | 0.00 | 80 | 1018.0 |
| 20260906100106 | 14 | 340 | 19.3 | 29.0 | 0.00 | 0.00 | 0.00 | 80 | 1018.0 |
| 20260906095606 | 14 | 336 | 25.7 | 29.0 | 0.00 | 0.00 | 0.00 | 80 | 1018.0 |
| 20260906095106 | 15 | 345 | 16.1 | 32.2 | 0.00 | 0.00 | 0.00 | 80 | 1017.7 |
| 20260906094605 | 15 | 347 | 24.1 | 27.4 | 0.00 | 0.00 | 0.00 | 79 | 1017.7 |
| 20260906094106 | 15 | 334 | 24.1 | 32.2 | 0.00 | 0.00 | 0.00 | 79 | 1017.7 |
| 20260906093606 | 15 | 337 | 25.7 | 27.4 | 0.00 | 0.00 | 0.00 | 78 | 1017.7 |
| 20260906093106 | 15 | 0 | 19.3 | 22.5 | 0.00 | 0.00 | 0.00 | 78 | 1017.7 |
| 20260906092606 | 15 | 45 | 19.3 | 24.1 | 0.00 | 0.00 | 0.00 | 79 | 1017.7 |
| 20260906092106 | 15 | 341 | 16.1 | 22.5 | 0.00 | 0.00 | 0.00 | 79 | 1018.0 |
| 20260906091605 | 15 | 337 | 9.7 | 14.5 | 0.00 | 0.00 | 0.00 | 80 | 1018.0 |
| 20260906091107 | 15 | 330 | 11.3 | 19.3 | 0.00 | 0.00 | 0.00 | 80 | 1018.0 |
| 20260906090605 | 15 | 331 | 11.3 | 20.9 | 0.00 | 0.00 | 0.00 | 80 | 1018.3 |
| 20260906085605 | 15 | 313 | 8.0 | 12.9 | 0.00 | 0.00 | 0.00 | 80 | 1018.3 |
| 20260906085106 | 15 | 308 | 11.3 | 16.1 | 0.00 | 0.00 | 0.00 | 80 | 1018.5 |
| 20260906084605 | 15 | 312 | 14.5 | 19.3 | 0.00 | 0.00 | 0.00 | 79 | 1018.5 |
| 20260906084107 | 15 | 316 | 11.3 | 19.3 | 0.00 | 0.00 | 0.00 | 78 | 1018.7 |
| 20260906083605 | 15 | 326 | 12.9 | 14.5 | 0.00 | 0.00 | 0.00 | 77 | 1018.7 |
| 20260906083105 | 15 | 324 | 9.7 | 19.3 | 0.00 | 0.00 | 0.00 | 77 | 1018.7 |
| 20260906082606 | 15 | 324 | 9.7 | 20.9 | 0.00 | 0.00 | 0.00 | 77 | 1018.7 |
| 20260906082105 | 15 | 333 | 12.9 | 19.3 | 0.00 | 0.00 | 0.00 | 77 | 1018.7 |
| 20260906081105 | 15 | 336 | 8.0 | 16.1 | 0.00 | 0.00 | 0.00 | 79 | 1018.7 |
| 20260906080605 | 14 | 327 | 3.2 | 9.7 | 0.00 | 0.00 | 0.00 | 81 | 1018.8 |
| 20260906080105 | 13 | 316 | 3.2 | 4.8 | 0.00 | 0.00 | 0.00 | 82 | 1018.9 |
| 20260906075605 | 13 | 307 | 3.2 | 4.8 | 0.00 | 0.00 | 0.00 | 82 | 1018.7 |
| 20260906075105 | 13 | 305 | 3.2 | 3.2 | 0.00 | 0.00 | 0.00 | 82 | 1018.7 |
| 20260906074606 | 13 | 304 | 1.6 | 3.2 | 0.00 | 0.00 | 0.00 | 82 | 1018.9 |
| 20260906074105 | 13 | 296 | 3.2 | 12.9 | 0.00 | 0.00 | 0.00 | 81 | 1018.7 |
| 20260906073106 | 13 | 317 | 4.8 | 9.7 | 0.00 | 0.00 | 0.00 | 81 | 1018.8 |
| 20260906072605 | 14 | 332 | 8.0 | 12.9 | 0.00 | 0.00 | 0.00 | 79 | 1018.8 |
| 20260906072106 | 14 | 327 | 11.3 | 16.1 | 0.00 | 0.00 | 0.00 | 79 | 1018.9 |
| 20260906071605 | 15 | 328 | 12.9 | 14.5 | 0.00 | 0.00 | 0.00 | 78 | 1019.0 |
| 20260906071105 | 15 | 345 | 12.9 | 14.5 | 0.00 | 0.00 | 0.00 | 78 | 1018.7 |
| 20260906070605 | 14 | 336 | 12.9 | 14.5 | 0.00 | 0.00 | 0.00 | 78 | 1018.8 |
| 20260906070105 | 14 | 347 | 11.3 | 14.5 | 0.00 | 0.00 | 0.00 | 79 | 1019.0 |
| 20260906065605 | 14 | 329 | 11.3 | 16.1 | 0.00 | 0.00 | 0.00 | 80 | 1018.9 |
| 20260906065105 | 14 | 335 | 8.0 | 14.5 | 0.00 | 0.00 | 0.00 | 81 | 1019.0 |
| 20260906064606 | 14 | 314 | 4.8 | 14.5 | 0.00 | 0.00 | 0.00 | 80 | 1019.1 |
| 20260906064105 | 14 | 316 | 9.7 | 12.9 | 0.00 | 0.00 | 0.00 | 80 | 1019.1 |
| 20260906063605 | 15 | 306 | 9.7 | 11.3 | 0.00 | 0.00 | 0.00 | 79 | 1019.3 |
| 20260906063106 | 15 | 306 | 9.7 | 14.5 | 0.00 | 0.00 | 0.00 | 79 | 1019.3 |
| 20260906062605 | 15 | 319 | 9.7 | 11.3 | 0.00 | 0.00 | 0.00 | 78 | 1019.6 |
| 20260906061605 | 15 | 319 | 9.7 | 16.1 | 0.00 | 0.00 | 0.00 | 78 | 1019.5 |
| 20260906061105 | 14 | 322 | 11.3 | 16.1 | 0.00 | 0.00 | 0.00 | 78 | 1019.3 |
| 20260906060605 | 14 | 294 | 11.3 | 12.9 | 0.00 | 0.00 | 0.00 | 78 | 1019.3 |
| 20260906060105 | 14 | 294 | 11.3 | 14.5 | 0.00 | 0.00 | 0.00 | 78 | 1019.3 |
| 20260906055606 | 14 | 309 | 14.5 | 16.1 | 0.00 | 0.00 | 0.00 | 77 | 1019.3 |
| 20260906054105 | 15 | 339 | 16.1 | 19.3 | 0.00 | 0.00 | 0.00 | 75 | 1019.2 |
| 20260906053105 | 15 | 348 | 19.3 | 22.5 | 0.00 | 0.00 | 0.00 | 74 | 1019.0 |
| 20260906052605 | 15 | 351 | 19.3 | 20.9 | 0.00 | 0.00 | 0.00 | 74 | 1019.0 |
| 20260906051605 | 15 | 334 | 9.7 | 14.5 | 0.00 | 0.00 | 0.00 | 74 | 1018.7 |
| 20260906050104 | 15 | 355 | 12.9 | 22.5 | 0.00 | 0.00 | 0.00 | 73 | 1018.7 |
| 20260906045105 | 15 | 351 | 20.9 | 25.7 | 0.00 | 0.00 | 0.00 | 73 | 1018.7 |
| 20260906044605 | 15 | 1 | 20.9 | 25.7 | 0.00 | 0.00 | 0.00 | 72 | 1018.3 |
| 20260906044105 | 15 | 2 | 19.3 | 32.2 | 0.00 | 0.00 | 0.00 | 72 | 1018.7 |
| 20260906043605 | 15 | 338 | 19.3 | 24.1 | 0.00 | 0.00 | 0.00 | 73 | 1018.8 |
| 20260906042605 | 15 | 314 | 19.3 | 27.4 | 0.00 | 0.00 | 0.00 | 73 | 1018.9 |
| 20260906042105 | 15 | 329 | 19.3 | 27.4 | 0.00 | 0.00 | 0.00 | 73 | 1018.2 |
| 20260906041605 | 15 | 347 | 20.9 | 25.7 | 0.00 | 0.00 | 0.00 | 73 | 1018.2 |
| 20260906041105 | 15 | 345 | 22.5 | 25.7 | 0.00 | 0.00 | 0.00 | 72 | 1017.7 |
| 20260906040605 | 15 | 327 | 24.1 | 32.2 | 0.00 | 0.00 | 0.00 | 70 | 1017.7 |
| 20260906040105 | 15 | 331 | 20.9 | 37.0 | 0.00 | 0.00 | 0.00 | 70 | 1017.7 |
| 20260906035604 | 15 | 329 | 25.7 | 37.0 | 0.00 | 0.00 | 0.00 | 69 | 1017.7 |
| 20260906035105 | 15 | 341 | 22.5 | 32.2 | 0.00 | 0.00 | 0.00 | 68 | 1017.8 |
| 20260906034604 | 15 | 357 | 20.9 | 29.0 | 0.00 | 0.00 | 0.00 | 68 | 1018.0 |
| 20260906034105 | 16 | 352 | 24.1 | 27.4 | 0.00 | 0.00 | 0.00 | 66 | 1018.2 |
| 20260906033605 | 16 | 352 | 24.1 | 33.8 | 0.00 | 0.00 | 0.00 | 66 | 1018.0 |
| 20260906033104 | 16 | 351 | 24.1 | 33.8 | 0.00 | 0.00 | 0.00 | 65 | 1018.2 |
| 20260906032605 | 16 | 326 | 20.9 | 24.1 | 0.00 | 0.00 | 0.00 | 62 | 1018.3 |
| 20260906032104 | 16 | 326 | 20.9 | 27.4 | 0.00 | 0.00 | 0.00 | 62 | 1018.3 |
| 20260906031604 | 16 | 332 | 20.9 | 32.2 | 0.00 | 0.00 | 0.00 | 62 | 1018.0 |
| 20260906031105 | 16 | 333 | 29.0 | 32.2 | 0.00 | 0.00 | 0.00 | 62 | 1018.3 |
| 20260906030604 | 16 | 342 | 19.3 | 25.7 | 0.00 | 0.00 | 0.00 | 61 | 1018.8 |
| 20260906024105 | 16 | 14 | 27.4 | 37.0 | 0.00 | 0.00 | 0.00 | 62 | 1016.8 |
| 20260906023105 | 17 | 24 | 24.1 | 32.2 | 0.00 | 0.00 | 0.00 | 61 | 1017.0 |
| 20260906022106 | 17 | 22 | 22.5 | 32.2 | 0.00 | 0.00 | 0.00 | 61 | 1016.8 |
| 20260906020604 | 17 | 56 | 14.5 | 24.1 | 0.00 | 0.00 | 0.00 | 58 | 1016.6 |
| 20260906020104 | 17 | 357 | 16.1 | 27.4 | 0.00 | 0.00 | 0.00 | 58 | 1016.6 |
| 20260906015604 | 18 | 13 | 22.5 | 29.0 | 0.00 | 0.00 | 0.00 | 56 | 1016.6 |
| 20260906015104 | 18 | 15 | 19.3 | 29.0 | 0.00 | 0.00 | 0.00 | 56 | 1016.6 |
| 20260906014604 | 18 | 10 | 20.9 | 22.5 | 0.00 | 0.00 | 0.00 | 53 | 1016.6 |
| 20260906014104 | 18 | 10 | 20.9 | 22.5 | 0.00 | 0.00 | 0.00 | 53 | 1016.6 |
| 20260906013604 | 18 | 3 | 16.1 | 22.5 | 0.00 | 0.00 | 0.00 | 53 | 1016.6 |
| 20260906013104 | 19 | 8 | 14.5 | 22.5 | 0.00 | 0.00 | 0.00 | 52 | 1016.6 |
| 20260906012604 | 19 | 24 | 16.1 | 22.5 | 0.00 | 0.00 | 0.00 | 51 | 1016.8 |
| 20260906011604 | 20 | 8 | 20.9 | 27.4 | 0.00 | 0.00 | 0.00 | 50 | 1016.6 |
| 20260906010604 | 20 | 21 | 20.9 | 27.4 | 0.00 | 0.00 | 0.00 | 48 | 1016.6 |
| 20260906010104 | 20 | 4 | 16.1 | 24.1 | 0.00 | 0.00 | 0.00 | 47 | 1016.6 |
| 20260906005604 | 21 | 7 | 19.3 | 25.7 | 0.00 | 0.00 | 0.00 | 46 | 1017.0 |
| 20260906005104 | 21 | 2 | 16.1 | 24.1 | 0.00 | 0.00 | 0.00 | 46 | 1017.0 |
| 20260906004604 | 21 | 2 | 19.3 | 24.1 | 0.00 | 0.00 | 0.00 | 46 | 1017.0 |
| 20260906004104 | 21 | 7 | 19.3 | 27.4 | 0.00 | 0.00 | 0.00 | 45 | 1016.8 |
| 20260906003603 | 21 | 357 | 16.1 | 25.7 | 0.00 | 0.00 | 0.00 | 43 | 1016.6 |
| 20260906003104 | 22 | 17 | 22.5 | 32.2 | 0.00 | 0.00 | 0.00 | 42 | 1016.8 |
| 20260906002104 | 22 | 17 | 20.9 | 27.4 | 0.00 | 0.00 | 0.00 | 39 | 1017.0 |
| 20260906001604 | 23 | 347 | 20.9 | 25.7 | 0.00 | 0.00 | 0.00 | 38 | 1016.8 |
| 20260906001103 | 23 | 15 | 20.9 | 27.4 | 0.00 | 0.00 | 0.00 | 38 | 1016.6 |
| 20260906000604 | 23 | 3 | 20.9 | 27.4 | 0.00 | 0.00 | 0.00 | 38 | 1016.6 |
| 20260906000104 | 23 | 349 | 20.9 | 29.0 | 0.00 | 0.00 | 0.00 | 38 | 1017.0 |
| 20260905235603 | 22 | 18 | 16.1 | 24.1 | 0.00 | 0.00 | 0.00 | 38 | 1017.0 |
| 20260905235109 | 22 | 8 | 16.1 | 25.7 | 0.00 | 0.00 | 0.00 | 38 | 1017.0 |
| 20260905234609 | 23 | 349 | 16.1 | 27.4 | 0.00 | 0.00 | 0.00 | 38 | 1017.0 |
| 20260905234109 | 24 | 354 | 19.3 | 25.7 | 0.00 | 0.00 | 0.00 | 36 | 1017.0 |
| 20260905233608 | 23 | 355 | 20.9 | 25.7 | 0.00 | 0.00 | 0.00 | 38 | 1017.0 |
| 20260905233109 | 23 | 338 | 9.7 | 11.3 | 0.00 | 0.00 | 0.00 | 32 | 1017.0 |